weather.gov     
National Weather Service

Terminal Aerodrome Forecast
NWS Homepage
This page is being discontinued on March 12, 2014.
The same data is available at this site. Please update your bookmarks.
Thank you, and we apologize for the inconvenience.
Please send an email to SR-SRH.Webmaster@noaa.gov with any concerns.


Current Version
Previous Version:    01  02  03  04  05  06  07  08  09  10  11  12  13  14  15  16  17  18  19  20  21  22  23  24  25  26  27  28  29  30  
   31  32  33  34  35  36  37  38  39  40  41  42  43  44  45  46  47  48  49  50  51  52  53  54  55  56  57  58  59  60  
[Printable]
759
FTUS44 KEWX 191700
TAFAUS
TAF
KAUS 191720Z 1918/2024 09007KT P6SM VCTS BKN030CB OVC150
      TEMPO 1918/1922 VRB15KT 3SM TSRA BKN015CB
     FM200000 12003KT P6SM SCT025 BKN080 BKN150
     FM200400 VRB03KT P6SM BKN010
     FM201000 VRB03KT 3SM BR OVC007
     FM201600 09006KT P6SM BKN025
     FM201800 09007KT P6SM BKN040=


U.S. Dept. of Commerce
NOAA National Weather Service
1325 East West Highway
Silver Spring, MD 20910
E-mail: w-nws.webmaster@noaa.gov
Page last modified: May 16, 2007
NATIONAL WEATHER SERVICE: for Safety, for Work, for Fun - FOR LIFE